RAPIDEYE 3

Last updated on Mon Sep 14 2020 05:43:38 GMT+0000 (Coordinated Universal Time)

1 33315U 08040D 20257.90043510 -.00000211 00000-0 -13242-4 0 9997 2 33315 97.6872 320.5611 0004471 50.7945 309.3673 14.97348239650989

Satellite not in orbit

RAPIDEYE 3